Location: ????????
(55.4000°N, 39.1167°E)
Time: 03:58:59
(UTC+00:00)

NOSS 3-1 (C) - Pass Details

Date: 19 May 2025
Orbit: 632 x 1571 km, 63.4° (Epoch: 12 June)

Event Time Altitude Azimuth Distance (km) Brightness Sun altitude
Rises 18:31:24 0° 195° (SSW) 3,003 5.7 -6.6°
Reaches altitude 10° 18:33:42 10° 187° (S) 2,160 4.9 -6.8°
Maximum altitude 18:38:07 35° 121° (ESE) 1,238 3.6 -7.2°
Drops below altitude 10° 18:43:23 10° 58° (ENE) 2,593 5.7 -7.6°
Sets 18:46:22 0° 50° (NE) 3,699 6.6 -7.9°
